CW9676 Weather Reports


time (UTC)temp
F
wind
direction
speed
knots
gust
knots
rain 1hr
in
rain 24hr
in
rain mn
in
humidity
%
barometer
mb
20260904133459 64 215 2.6 7.0 0.00 0.39 0.38 91 1007.7
20260904131313 63 206 2.6 5.2 0.00 0.39 0.38 92 1007.5
20260904130253 63 204 3.5 7.0 0.00 0.39 0.38 91 1007.3
20260904125300 63 210 3.5 7.8 0.00 0.39 0.38 92 1007.1
20260904124309 63 225 4.3 8.7 0.00 0.39 0.38 92 1006.9
20260904123329 63 215 4.3 9.6 0.00 0.39 0.38 92 1006.8
20260904122306 63 207 4.3 9.6 0.00 0.39 0.38 92 1006.8
20260904120105 63 198 4.3 7.8 0.00 0.39 0.38 92 1006.6
20260904115032 63 175 3.5 8.7 0.00 0.39 0.38 92 1006.6
20260904114019 63 213 4.3 8.7 0.00 0.39 0.38 93 1006.7
20260904113033 63 213 4.3 7.8 0.00 0.39 0.38 93 1006.7
20260904112010 63 209 2.6 5.2 0.00 0.39 0.38 93 1006.6
20260904110940 63 209 2.6 5.2 0.00 0.39 0.38 94 1006.6
20260904105932 63 209 2.6 4.3 0.00 0.39 0.38 94 1006.5
20260904104953 63 225 0.9 2.6 0.00 0.39 0.38 95 1006.6
20260904103954 63 340 0.0 0.9 0.00 0.39 0.38 95 1006.6
20260904103016 63 340 0.0 0.9 0.00 0.39 0.38 95 1006.6
20260904102041 63 111 0.0 0.9 0.00 0.39 0.38 95 1006.6
20260904101034 63 111 0.0 1.7 0.00 0.39 0.38 95 1006.8
20260904100005 63 337 2.6 7.8 0.00 0.39 0.38 94 1006.8
20260904095029 63 318 3.5 7.8 0.00 0.39 0.38 94 1006.8
20260904094053 63 333 2.6 7.8 0.00 0.39 0.38 94 1006.9
20260904093058 62 348 4.3 7.8 0.00 0.39 0.38 93 1007.0
20260904092115 63 4 5.2 8.7 0.04 0.39 0.38 93 1007.0
20260904091128 63 352 5.2 11.3 0.13 0.39 0.38 92 1007.0
20260904084944 66 14 3.5 10.4 0.00 0.00 0.00 78 1007.3
20260904083925 67 29 5.2 10.4 0.00 0.00 0.00 77 1007.2
20260904082858 67 359 0.9 5.2 0.00 0.00 0.00 76 1007.0
20260904081847 67 37 5.2 9.6 0.00 0.00 0.00 77 1007.0
20260904080910 67 67 1.7 4.3 0.00 0.00 0.00 77 1007.0
20260904075849 67 4 3.5 5.2 0.00 0.00 0.00 77 1006.6
20260904074843 67 204 2.6 5.2 0.00 0.00 0.00 77 1006.6
20260904073847 67 192 1.7 4.3 0.00 0.00 0.00 77 1006.6
20260904071736 67 214 3.5 7.0 0.00 0.00 0.00 76 1006.5
20260904070731 67 194 3.5 7.8 0.00 0.00 0.00 76 1006.5
20260904065719 67 199 4.3 9.6 0.00 0.00 0.00 75 1006.4
20260904064743 67 4 5.2 9.6 0.00 0.00 0.00 75 1006.5
20260904062541 67 4 3.5 8.7 0.00 0.00 0.00 74 1006.7
20260904061600 67 4 4.3 10.4 0.00 0.00 0.00 73 1006.5
20260904060538 68 222 4.3 10.4 0.00 0.00 0.00 73 1006.6
20260904055553 68 4 3.5 7.8 0.00 0.00 0.00 73 1006.6
20260904053512 68 4 3.5 7.0 0.00 0.00 0.00 73 1006.6
20260904051328 69 203 3.5 7.8 0.00 0.00 0.00 71 1006.5
20260904050303 69 163 3.5 7.8 0.00 0.00 0.00 70 1006.5
20260904045246 69 165 2.6 7.8 0.00 0.00 0.00 69 1006.5
20260904044256 70 195 2.6 6.1 0.00 0.00 0.00 68 1006.4
20260904043316 70 146 2.6 7.0 0.00 0.00 0.00 67 1006.4
20260904041053 70 188 3.5 7.8 0.00 0.00 0.00 66 1006.2
20260904034933 71 4 3.5 7.8 0.00 0.00 0.00 65 1006.1
20260904033946 71 175 3.5 7.8 0.00 0.00 0.00 64 1006.0
20260904033004 71 161 3.5 7.0 0.00 0.00 0.00 64 1005.9
20260904032020 71 4 2.6 5.2 0.00 0.00 0.00 63 1005.9
20260904025948 71 206 2.6 4.3 0.00 0.00 0.00 63 1005.5
20260904024948 71 4 2.6 5.2 0.00 0.00 0.00 62 1005.4
20260904023958 71 215 3.5 6.1 0.00 0.00 0.00 62 1005.3
20260904023016 72 227 3.5 6.1 0.00 0.00 0.00 62 1005.0
20260904022036 72 202 2.6 5.2 0.00 0.00 0.00 61 1004.8
20260904021051 72 190 2.6 4.3 0.00 0.00 0.00 60 1004.7
20260904020104 73 194 2.6 5.2 0.00 0.00 0.00 59 1004.5
20260904015119 74 188 3.5 8.7 0.00 0.00 0.00 56 1004.6
20260904014048 75 141 3.5 8.7 0.00 0.00 0.00 51 1004.6
20260904011847 75 155 1.7 4.3 0.00 0.00 0.00 50 1004.4
20260904010839 75 167 2.6 7.8 0.00 0.00 0.00 49 1004.4
20260904004726 76 177 0.0 0.0 0.00 0.00 0.00 50 1004.3
20260904003740 76 176 0.0 0.0 0.00 0.00 0.00 50 1004.4
20260904001616 77 93 0.0 0.9 0.00 0.00 0.00 48 1004.5
20260904000638 77 93 0.0 0.0 0.00 0.00 0.00 49 1004.5
20260903233258 77 58 1.7 4.3 0.00 0.00 0.00 50 1004.6
20260903232319 77 58 0.9 3.5 0.00 0.00 0.00 48 1004.6
20260903231336 77 57 0.9 4.3 0.00 0.00 0.00 49 1004.5
20260903230336 77 52 1.7 4.3 0.00 0.00 0.00 51 1004.5
20260903225325 79 46 1.7 4.3 0.00 0.00 0.00 46 1004.5
20260903224302 80 55 0.9 4.3 0.00 0.00 0.00 43 1004.5
20260903223238 81 32 0.9 3.5 0.00 0.00 0.00 41 1004.5
20260903222257 80 258 0.0 2.6 0.00 0.00 0.00 42 1004.4
20260903221227 80 192 0.9 2.6 0.00 0.00 0.00 43 1004.5
20260903220247 79 153 0.0 1.7 0.00 0.00 0.00 44 1004.5
20260903215306 79 67 0.9 4.3 0.00 0.00 0.00 44 1004.7
20260903214319 79 103 0.0 4.3 0.00 0.00 0.00 44 1004.8
20260903213253 78 29 0.9 0.9 0.00 0.00 0.00 43 1004.9
20260903212300 79 45 1.7 7.0 0.00 0.00 0.00 43 1005.1
20260903211244 79 145 2.6 7.0 0.00 0.00 0.00 42 1005.0
20260903210230 80 78 1.7 7.8 0.00 0.00 0.00 41 1005.2
20260903205217 80 100 3.5 7.8 0.00 0.00 0.00 42 1005.2
20260903204234 84 129 2.6 7.0 0.00 0.00 0.00 38 1005.2
20260903203223 83 317 3.5 7.0 0.00 0.00 0.00 40 1005.2
20260903201058 81 359 2.6 8.7 0.00 0.00 0.00 45 1005.7
20260903200107 80 4 2.6 7.8 0.00 0.00 0.00 48 1005.7
20260903195046 77 111 2.6 7.8 0.00 0.00 0.00 51 1006.0
20260903194046 76 166 2.6 4.3 0.00 0.00 0.00 53 1006.1
20260903193026 75 193 1.7 4.3 0.00 0.00 0.00 61 1006.1
20260903192034 73 142 2.6 6.1 0.00 0.00 0.00 64 1006.2
20260903191046 73 191 3.5 7.0 0.00 0.00 0.00 62 1006.3
20260903190045 73 177 5.2 9.6 0.00 0.00 0.00 61 1006.4
20260903183912 74 186 5.2 11.3 0.00 0.00 0.00 58 1006.9
20260903182912 75 145 4.3 9.6 0.00 0.00 0.00 55 1006.9
20260903181912 75 215 2.6 9.6 0.00 0.00 0.00 56 1007.0
20260903180905 74 4 4.3 9.6 0.00 0.00 0.00 56 1007.1
20260903175913 74 256 4.3 8.7 0.00 0.00 0.00 57 1007.1
20260903173717 73 4 3.5 7.8 0.00 0.00 0.00 61 1007.1
20260903172722 72 221 2.6 7.8 0.00 0.00 0.00 65 1007.2
20260903171717 71 161 3.5 7.8 0.00 0.00 0.00 64 1007.2
20260903170709 71 225 3.5 7.8 0.00 0.00 0.00 65 1007.0
20260903165656 71 191 4.3 7.8 0.00 0.00 0.00 63 1007.0
20260903164709 73 195 2.6 6.1 0.00 0.00 0.00 56 1007.0
20260903163638 73 172 2.6 8.7 0.00 0.00 0.00 55 1006.8
20260903162647 74 176 2.6 8.7 0.00 0.00 0.00 55 1006.8
20260903161655 73 220 1.7 5.2 0.00 0.00 0.00 57 1006.9
20260903160702 72 163 1.7 4.3 0.00 0.00 0.00 59 1006.9
20260903154445 71 175 2.6 7.0 0.00 0.00 0.00 61 1006.9
20260903153429 71 186 1.7 5.2 0.00 0.00 0.00 64 1006.8
20260903152436 70 167 1.7 4.3 0.00 0.00 0.00 64 1006.9
20260903151421 70 162 2.6 6.1 0.00 0.00 0.00 67 1006.9
20260903150406 69 199 3.5 9.6 0.00 0.00 0.00 69 1006.6
20260903145431 69 210 5.2 9.6 0.00 0.00 0.00 70 1006.7
20260903144426 68 164 3.5 7.8 0.00 0.00 0.00 71 1006.6
20260903143407 68 221 5.2 9.6 0.00 0.00 0.00 72 1006.5
20260903142417 68 223 5.2 9.6 0.00 0.00 0.00 72 1006.5